Zurück zum Katalog

ONEWEB-0720

AktivKommunikationPO
NORAD 55835·PAYLOAD·🇬🇧 United Kingdom

Gestartet Mar 9, 2023 von Cape Canaveral Space Force Station

Loading…

Nächste Überflüge (nächste 24 Stunden)

TLE

AktuellSource: CelesTrak SupGP

Epoche: Sep 14, 2026, 07:03 UTC

1 55835C 23029AR  26257.29426343 -.00002957  00000+0 -73952-2 0  2576
2 55835  87.9109 287.2249 0001960  85.3331 323.1260 13.19728931    17

Verfolge ONEWEB-0720 in Echtzeit mit AllMySat

Download on the App Store